Location: Holkham
(52.9500°N, 0.8167°E)
Time: 19:39:25
(UTC+00:00)

Cosmos 2344 - Pass Details

Date: 19 May 2025
Orbit: 1200 x 3042 km, 63.3° (Epoch: 21 June)

Event Time Altitude Azimuth Distance (km) Brightness Sun altitude
Rises 21:25:17 0° 245° (WSW) 4,267 6.5 -10.4°
Reaches altitude 10° 21:28:10 10° 250° (WSW) 3,208 5.9 -10.6°
Maximum altitude 21:35:23 59° 330° (NNW) 1,378 4.2 -11.2°
Drops below altitude 10° 21:42:55 10° 50° (NE) 3,347 5.9 -11.8°
Sets 21:46:00 0° 54° (NE) 4,467 6.5 -12.0°
